RZO178 ESSA-LPPT

Flight info

Callsign RZO178
Flight time N/A
Altitude 34000
Route PETEV N872 ELPAX DCT KULUD Z703 ALS N872 PAM/N0456F350 N872 CIV/N0456F340 DCT MEDIL/N0454F350 DCT KOVIN DCT NIDUV DCT KIHVI UN872 ERIGA UZ218 FUJTI DCT ATLEN DCT ABUPI DCT XAMAX
Aircraft A320/M-SDE3FGHIRWY/LB1

Departure

Time 2026-05-03 20:15
Airport Stockholm-Arlanda Airport (ESSA)

Arrival

Time N/A
Airport Lisbon Humberto Delgado Airport (LPPT)
Time Latitude Longitude Altitude Speed Heading
2026-05-03 20:15 59.66394 17.98051 581 ft 147 kts 77°
2026-05-03 20:15 59.66638 18.00062 1168 ft 156 kts 77°
2026-05-03 20:15 59.66921 18.02260 1678 ft 171 kts 79°
2026-05-03 20:15 59.67004 18.04642 1995 ft 186 kts 99°
2026-05-03 20:16 59.66574 18.07171 2250 ft 203 kts 123°
2026-05-03 20:16 59.65511 18.09057 2527 ft 213 kts 166°
2026-05-03 20:16 59.64071 18.08973 3065 ft 210 kts 209°
2026-05-03 20:16 59.63049 18.07007 3654 ft 211 kts 240°
2026-05-03 20:17 59.62284 18.04509 4317 ft 210 kts 240°
2026-05-03 20:17 59.61532 18.02056 5061 ft 208 kts 240°
2026-05-03 20:17 59.60782 17.99610 5735 ft 209 kts 239°
2026-05-03 20:17 59.59899 17.97327 6367 ft 210 kts 232°
2026-05-03 20:18 59.58941 17.94993 6663 ft 230 kts 232°
2026-05-03 20:18 59.57883 17.92417 6914 ft 252 kts 232°
2026-05-03 20:18 59.56762 17.89682 7494 ft 259 kts 233°
2026-05-03 20:18 59.55627 17.86907 8237 ft 261 kts 233°
2026-05-03 20:19 59.54488 17.84112 9018 ft 262 kts 233°
2026-05-03 20:19 59.53365 17.81338 9776 ft 263 kts 234°
2026-05-03 20:19 59.52209 17.78467 10208 ft 277 kts 234°
2026-05-03 20:19 59.50965 17.75371 10343 ft 299 kts 234°
2026-05-03 20:20 59.49628 17.72046 10468 ft 320 kts 234°
2026-05-03 20:20 59.48206 17.68510 10717 ft 336 kts 233°
2026-05-03 20:20 59.46741 17.64873 11263 ft 341 kts 233°
2026-05-03 20:20 59.45257 17.61207 11872 ft 344 kts 233°
2026-05-03 20:21 59.43760 17.57521 12499 ft 346 kts 233°
2026-05-03 20:21 59.42250 17.53816 13116 ft 349 kts 233°
2026-05-03 20:21 59.40723 17.50080 13723 ft 352 kts 233°
2026-05-03 20:21 59.39189 17.46321 14265 ft 354 kts 233°
2026-05-03 20:22 59.37663 17.42581 14804 ft 356 kts 233°
2026-05-03 20:22 59.36111 17.38782 15354 ft 358 kts 233°
2026-05-03 20:22 59.34547 17.34961 15899 ft 360 kts 233°
2026-05-03 20:22 59.32973 17.31128 16436 ft 362 kts 233°
2026-05-03 20:23 59.31385 17.27268 16991 ft 365 kts 233°
2026-05-03 20:23 59.29790 17.23400 17536 ft 366 kts 233°
2026-05-03 20:23 59.28183 17.19510 18074 ft 368 kts 233°
2026-05-03 20:23 59.26567 17.15604 18535 ft 370 kts 233°
2026-05-03 20:24 59.24939 17.11677 18997 ft 372 kts 233°
2026-05-03 20:24 59.23310 17.07747 19441 ft 373 kts 234°
2026-05-03 20:24 59.21690 17.03767 19884 ft 374 kts 234°
2026-05-03 20:24 59.19925 17.00007 20302 ft 379 kts 226°
2026-05-03 20:25 59.18035 16.96834 20705 ft 382 kts 224°
2026-05-03 20:25 59.16003 16.93492 21098 ft 383 kts 224°
2026-05-03 20:25 59.13954 16.90156 21496 ft 385 kts 224°
2026-05-03 20:25 59.11885 16.86811 21887 ft 387 kts 224°
2026-05-03 20:26 59.09808 16.83463 22264 ft 388 kts 224°
2026-05-03 20:26 59.07725 16.80111 22627 ft 390 kts 224°
2026-05-03 20:26 59.05632 16.76744 22975 ft 391 kts 224°
2026-05-03 20:26 59.03704 16.73640 23293 ft 393 kts 224°
2026-05-03 20:27 59.01596 16.70254 23603 ft 394 kts 224°
2026-05-03 20:27 58.99476 16.66855 23889 ft 396 kts 224°
2026-05-03 20:27 58.97372 16.63479 24164 ft 397 kts 224°
2026-05-03 20:27 58.95937 16.61175 24347 ft 398 kts 224°
2026-05-03 20:28 58.93098 16.56629 24699 ft 400 kts 224°
2026-05-03 20:28 58.90950 16.53199 24971 ft 401 kts 224°
2026-05-03 20:28 58.89496 16.50877 25144 ft 402 kts 224°
2026-05-03 20:28 58.87337 16.47430 25384 ft 403 kts 224°
2026-05-03 20:29 58.85169 16.43975 25629 ft 404 kts 224°
2026-05-03 20:29 58.82992 16.40519 25864 ft 405 kts 224°
2026-05-03 20:29 58.80810 16.37062 26097 ft 407 kts 224°
2026-05-03 20:29 58.78613 16.33592 26318 ft 408 kts 224°
2026-05-03 20:30 58.76415 16.30126 26543 ft 409 kts 224°
2026-05-03 20:30 58.74231 16.26692 26739 ft 410 kts 223°
2026-05-03 20:30 58.72017 16.23214 26960 ft 411 kts 224°
2026-05-03 20:30 58.69806 16.19741 27146 ft 412 kts 224°
2026-05-03 20:31 58.67582 16.16252 27333 ft 413 kts 223°
2026-05-03 20:31 58.65358 16.12770 27594 ft 411 kts 223°
2026-05-03 20:31 58.63137 16.09304 27860 ft 410 kts 223°
2026-05-03 20:31 58.60919 16.05854 28141 ft 409 kts 223°
2026-05-03 20:32 58.58714 16.02428 28412 ft 408 kts 223°
2026-05-03 20:32 58.56507 15.98995 28677 ft 407 kts 223°
2026-05-03 20:32 58.54311 15.95583 28945 ft 406 kts 223°
2026-05-03 20:32 58.52122 15.92186 29214 ft 405 kts 223°
2026-05-03 20:33 58.49928 15.88793 29485 ft 404 kts 223°
2026-05-03 20:33 58.47742 15.85424 29759 ft 403 kts 223°
2026-05-03 20:33 58.45582 15.82105 30013 ft 403 kts 223°
2026-05-03 20:33 58.43375 15.78722 30236 ft 402 kts 223°
2026-05-03 20:34 58.41226 15.75428 30456 ft 401 kts 223°
2026-05-03 20:34 58.39053 15.72095 30675 ft 400 kts 223°
2026-05-03 20:34 58.36887 15.68769 30899 ft 399 kts 223°
2026-05-03 20:34 58.34725 15.65454 31122 ft 398 kts 223°
2026-05-03 20:35 58.32566 15.62153 31334 ft 398 kts 223°
2026-05-03 20:35 58.30404 15.58861 31553 ft 397 kts 223°
2026-05-03 20:35 58.28248 15.55580 31770 ft 396 kts 223°
2026-05-03 20:35 58.26098 15.52307 31986 ft 396 kts 223°
2026-05-03 20:36 58.23981 15.49092 32198 ft 395 kts 223°
2026-05-03 20:36 58.21830 15.45837 32404 ft 395 kts 223°
2026-05-03 20:36 58.19680 15.42591 32597 ft 394 kts 223°
2026-05-03 20:36 58.17528 15.39344 32799 ft 394 kts 223°
2026-05-03 20:37 58.15391 15.36123 32983 ft 393 kts 223°
2026-05-03 20:37 58.13247 15.32902 33197 ft 393 kts 223°
2026-05-03 20:37 58.11108 15.29693 33393 ft 392 kts 223°
2026-05-03 20:37 58.08975 15.26481 33599 ft 391 kts 224°
2026-05-03 20:38 58.06911 15.23155 33794 ft 389 kts 226°
2026-05-03 20:38 58.02927 15.16236 33867 ft 389 kts 227°
2026-05-03 20:39 57.98989 15.09308 33862 ft 390 kts 227°
2026-05-03 20:39 57.94969 15.02411 33864 ft 390 kts 226°
2026-05-03 20:40 57.90922 14.95567 33861 ft 391 kts 226°
2026-05-03 20:40 57.86874 14.88750 33864 ft 391 kts 226°
2026-05-03 20:41 57.82838 14.81962 33863 ft 391 kts 226°
2026-05-03 20:41 57.78783 14.75147 33859 ft 391 kts 226°
2026-05-03 20:42 57.74724 14.68347 33861 ft 391 kts 226°
2026-05-03 20:42 57.70661 14.61562 33861 ft 391 kts 225°
2026-05-03 20:43 57.66601 14.54820 33861 ft 391 kts 225°
2026-05-03 20:43 57.62535 14.48082 33865 ft 391 kts 225°
2026-05-03 20:44 57.58462 14.41357 33862 ft 391 kts 225°
2026-05-03 20:44 57.54403 14.34687 33864 ft 391 kts 225°
2026-05-03 20:45 57.50332 14.28002 33866 ft 390 kts 225°
2026-05-03 20:45 57.46260 14.21317 33862 ft 390 kts 225°
2026-05-03 20:46 57.42186 14.14662 33865 ft 390 kts 225°
2026-05-03 20:46 57.38103 14.08022 33864 ft 390 kts 224°
2026-05-03 20:47 57.34047 14.01454 33867 ft 390 kts 224°
2026-05-03 20:47 57.29966 13.94851 33867 ft 390 kts 224°
2026-05-03 20:48 57.25881 13.88265 33868 ft 390 kts 224°
2026-05-03 20:48 57.21791 13.81699 33865 ft 390 kts 224°
2026-05-03 20:49 57.17695 13.75137 33864 ft 390 kts 224°
2026-05-03 20:49 57.13594 13.68572 33864 ft 390 kts 224°
2026-05-03 20:50 57.09511 13.62063 33866 ft 390 kts 223°
2026-05-03 20:50 57.05400 13.55534 33865 ft 390 kts 223°
2026-05-03 20:51 57.01281 13.49014 33864 ft 390 kts 223°
2026-05-03 20:51 56.97156 13.42525 33859 ft 391 kts 223°
2026-05-03 20:52 56.93028 13.36027 33861 ft 391 kts 223°
2026-05-03 20:52 56.88915 13.29559 33859 ft 392 kts 223°
2026-05-03 20:53 56.84771 13.23076 33856 ft 392 kts 223°
2026-05-03 20:53 56.80619 13.16603 33850 ft 392 kts 223°
2026-05-03 20:54 56.76459 13.10151 33851 ft 393 kts 223°
2026-05-03 20:54 56.70170 13.00419 33866 ft 397 kts 222°
2026-05-03 20:55 56.65953 12.93889 33860 ft 403 kts 222°
2026-05-03 20:55 56.61661 12.87264 33867 ft 406 kts 222°
2026-05-03 20:56 56.57337 12.80628 33873 ft 407 kts 222°
2026-05-03 20:56 56.53004 12.74017 33865 ft 407 kts 222°
2026-05-03 20:57 56.48670 12.67421 33850 ft 407 kts 221°
2026-05-03 20:57 56.44332 12.60831 33852 ft 407 kts 221°
2026-05-03 20:58 56.39987 12.54247 33856 ft 407 kts 221°
2026-05-03 20:58 56.35669 12.47724 33853 ft 408 kts 221°
2026-05-03 20:59 56.31312 12.41173 33857 ft 408 kts 221°
2026-05-03 20:59 56.26952 12.34637 33857 ft 408 kts 221°
2026-05-03 21:00 56.24033 12.30243 33842 ft 408 kts 221°
2026-05-03 21:00 56.18308 12.21378 33847 ft 408 kts 222°
2026-05-03 21:01 56.14009 12.14727 33844 ft 409 kts 221°
2026-05-03 21:01 56.09686 12.08099 33840 ft 409 kts 221°
2026-05-03 21:02 56.05357 12.01496 33836 ft 409 kts 221°
2026-05-03 21:02 56.01059 11.94954 33849 ft 409 kts 221°
2026-05-03 21:03 55.97011 11.87832 33850 ft 409 kts 226°
2026-05-03 21:03 55.93052 11.80531 33844 ft 409 kts 226°
2026-05-03 21:04 55.89084 11.73243 33839 ft 409 kts 226°
2026-05-03 21:04 55.85111 11.65976 33839 ft 410 kts 226°
2026-05-03 21:05 55.81131 11.58707 33844 ft 410 kts 225°
2026-05-03 21:05 55.77142 11.51447 33842 ft 410 kts 225°
2026-05-03 21:06 55.73166 11.44243 33842 ft 411 kts 225°
2026-05-03 21:06 55.69163 11.37013 33839 ft 411 kts 225°
2026-05-03 21:07 55.65145 11.29789 33836 ft 411 kts 225°
2026-05-03 21:07 55.61132 11.22573 33833 ft 412 kts 225°
2026-05-03 21:08 55.57109 11.15361 33831 ft 412 kts 225°
2026-05-03 21:08 55.53072 11.08149 33838 ft 413 kts 225°
2026-05-03 21:09 55.49021 11.00960 33840 ft 413 kts 225°
2026-05-03 21:09 55.44970 10.93782 33845 ft 413 kts 225°
2026-05-03 21:10 55.40909 10.86606 33849 ft 414 kts 224°
2026-05-03 21:10 55.36835 10.79436 33856 ft 414 kts 224°
2026-05-03 21:11 55.32787 10.72315 33864 ft 414 kts 224°
2026-05-03 21:11 55.28714 10.65162 33861 ft 414 kts 224°
2026-05-03 21:12 55.24629 10.58035 33859 ft 414 kts 224°
2026-05-03 21:12 55.20540 10.50916 33858 ft 414 kts 224°
2026-05-03 21:13 55.16446 10.43810 33863 ft 414 kts 224°
2026-05-03 21:13 55.12345 10.36721 33868 ft 414 kts 224°
2026-05-03 21:14 55.08246 10.29648 33869 ft 414 kts 224°
2026-05-03 21:14 55.04144 10.22595 33870 ft 414 kts 223°
2026-05-03 21:15 55.00068 10.15606 33872 ft 414 kts 223°
2026-05-03 21:15 54.95957 10.08577 33874 ft 414 kts 223°
2026-05-03 21:16 54.91844 10.01572 33876 ft 414 kts 223°
2026-05-03 21:16 54.88615 9.95420 33873 ft 414 kts 228°
2026-05-03 21:17 54.84879 9.87780 33874 ft 414 kts 228°
2026-05-03 21:17 54.81398 9.79785 33875 ft 415 kts 232°
2026-05-03 21:18 54.78058 9.71634 33868 ft 415 kts 232°
2026-05-03 21:18 54.74730 9.63521 33870 ft 415 kts 232°
2026-05-03 21:19 54.71379 9.55375 33870 ft 415 kts 232°
2026-05-03 21:19 54.68020 9.47253 33873 ft 415 kts 232°
2026-05-03 21:20 54.64649 9.39160 33880 ft 415 kts 232°
2026-05-03 21:20 54.61307 9.31125 33874 ft 414 kts 232°
2026-05-03 21:21 54.57938 9.23057 33875 ft 414 kts 231°
2026-05-03 21:21 54.54579 9.15023 33874 ft 414 kts 231°
2026-05-03 21:22 54.51196 9.06969 33871 ft 414 kts 231°
2026-05-03 21:22 54.47811 8.98947 33872 ft 414 kts 231°
2026-05-03 21:23 54.44423 8.90949 33877 ft 414 kts 231°
2026-05-03 21:23 54.41056 8.83019 33877 ft 413 kts 231°
2026-05-03 21:24 54.37662 8.75039 33873 ft 414 kts 231°
2026-05-03 21:24 54.34258 8.67063 33874 ft 414 kts 231°
2026-05-03 21:25 54.30843 8.59094 33871 ft 415 kts 231°
2026-05-03 21:25 54.27421 8.51142 33875 ft 415 kts 231°
2026-05-03 21:26 54.23985 8.43193 33875 ft 415 kts 231°
2026-05-03 21:26 54.20116 8.35955 33872 ft 412 kts 221°
2026-05-03 21:27 54.15981 8.29258 33874 ft 412 kts 221°
2026-05-03 21:27 54.11955 8.22739 33867 ft 412 kts 221°
2026-05-03 21:28 54.07711 8.15898 33874 ft 413 kts 221°
2026-05-03 21:28 54.03535 8.09174 33877 ft 414 kts 222°
2026-05-03 21:29 53.99339 8.02427 33878 ft 414 kts 222°
2026-05-03 21:29 53.95171 7.95742 33882 ft 414 kts 222°
2026-05-03 21:30 53.90969 7.89026 33885 ft 415 kts 222°
2026-05-03 21:30 53.86758 7.82320 33895 ft 415 kts 222°
2026-05-03 21:31 53.82543 7.75632 33900 ft 415 kts 222°
2026-05-03 21:31 53.78351 7.68986 33901 ft 415 kts 222°
2026-05-03 21:32 53.74121 7.62307 33906 ft 416 kts 222°
2026-05-03 21:32 53.69886 7.55652 33910 ft 416 kts 222°
2026-05-03 21:33 53.65641 7.48991 33909 ft 416 kts 222°
2026-05-03 21:33 53.61396 7.42340 33908 ft 417 kts 222°
2026-05-03 21:34 53.57164 7.35730 33914 ft 418 kts 222°
2026-05-03 21:34 53.52897 7.29094 33924 ft 418 kts 222°
2026-05-03 21:35 53.48610 7.22455 33919 ft 419 kts 222°
2026-05-03 21:35 53.44318 7.15814 33917 ft 420 kts 222°
2026-05-03 21:36 53.40020 7.09175 33917 ft 420 kts 222°
2026-05-03 21:36 53.35703 7.02544 33924 ft 421 kts 222°
2026-05-03 21:37 53.31620 6.95526 33924 ft 421 kts 228°
2026-05-03 21:37 53.27761 6.88151 33918 ft 422 kts 228°
2026-05-03 21:38 53.23883 6.80783 33927 ft 422 kts 228°
2026-05-03 21:38 53.20164 6.73757 33913 ft 423 kts 228°
2026-05-03 21:39 53.16283 6.66447 33912 ft 423 kts 228°
2026-05-03 21:39 53.12437 6.59020 33910 ft 424 kts 229°
2026-05-03 21:40 53.08622 6.51494 33909 ft 424 kts 229°
2026-05-03 21:40 53.04799 6.44000 33909 ft 425 kts 229°
2026-05-03 21:41 53.00974 6.36575 33910 ft 426 kts 229°
2026-05-03 21:41 52.97105 6.29106 33914 ft 426 kts 229°
2026-05-03 21:42 52.93233 6.21639 33914 ft 427 kts 229°
2026-05-03 21:42 52.89356 6.14175 33919 ft 427 kts 229°
2026-05-03 21:43 52.85471 6.06723 33922 ft 428 kts 229°
2026-05-03 21:43 52.81653 5.99430 33923 ft 428 kts 229°
2026-05-03 21:44 52.77907 5.92314 33934 ft 428 kts 229°
2026-05-03 21:44 52.74002 5.84897 33946 ft 427 kts 229°
2026-05-03 21:45 52.70109 5.77517 33955 ft 425 kts 229°